DW1920 Weather Reports


Display with metric or nautical units.
time (UTC)temp
F
wind
direction
speed
MPH
gust
MPH
rain 1hr
in
rain 24hr
in
rain mn
in
humidity
%
barometer
mb
20171215175000 25 248 3.0 6.0 0.00 0.00 0.00 70 1015.3
20171215174001 24 288 2.0 9.0 0.00 0.00 0.00 69 1015.3
20171215173001 24 308 3.0 8.0 0.00 0.00 0.00 68 1015.5
20171215172001 25 279 6.0 9.0 0.00 0.00 0.00 67 1015.6
20171215171001 24 246 1.0 9.0 0.00 0.00 0.00 68 1015.7
20171215170002 24 287 4.0 7.0 0.00 0.00 0.00 66 1015.9
20171215165001 24 317 3.0 5.0 0.00 0.00 0.00 64 1016.0
20171215164001 23 286 4.0 8.0 0.00 0.00 0.00 64 1016.3
20171215163000 23 270 4.0 8.0 0.00 0.00 0.00 63 1016.3
20171215162001 24 295 2.0 6.0 0.00 0.00 0.00 63 1016.5
20171215161001 23 263 3.0 8.0 0.00 0.00 0.00 64 1016.7
20171215160002 22 286 4.0 8.0 0.00 0.00 0.00 64 1016.8
20171215155001 22 278 3.0 7.0 0.00 0.00 0.00 62 1017.1
20171215153001 21 296 4.0 8.0 0.00 0.00 0.00 63 1017.4
20171215152001 21 284 6.0 9.0 0.00 0.00 0.00 61 1017.4
20171215151001 20 300 2.0 8.0 0.00 0.00 0.00 57 1017.6
20171215150001 20 293 2.0 7.0 0.00 0.00 0.00 56 1017.6
20171215145001 20 330 3.0 8.0 0.00 0.00 0.00 54 1017.6
20171215144000 20 326 7.0 10.0 0.00 0.00 0.00 53 1017.4
20171215143001 19 342 4.0 8.0 0.00 0.00 0.00 55 1017.5
20171215142001 18 351 6.0 9.0 0.00 0.00 0.00 56 1017.5
20171215141001 18 332 4.0 7.0 0.00 0.00 0.00 59 1017.3
20171215140001 18 317 6.0 9.0 0.00 0.00 0.00 60 1017.2
20171215135000 17 332 6.0 12.0 0.00 0.00 0.00 60 1017.2
20171215134001 17 298 8.0 10.0 0.00 0.00 0.00 60 1017.1
20171215133001 17 284 6.0 9.0 0.00 0.00 0.00 63 1016.9
20171215132001 16 305 4.0 9.0 0.00 0.00 0.00 63 1016.6
20171215131001 16 285 5.0 9.0 0.00 0.00 0.00 64 1016.6
20171215130000 15 295 6.0 9.0 0.00 0.00 0.00 62 1016.6
20171215125001 15 305 4.0 8.0 0.00 0.00 0.00 62 1016.6
20171215124001 15 293 7.0 9.0 0.00 0.00 0.00 62 1016.5
20171215123001 14 298 3.0 9.0 0.00 0.00 0.00 60 1016.6
20171215122001 14 289 6.0 10.0 0.00 0.00 0.00 61 1016.2
20171215121001 14 292 4.0 9.0 0.00 0.00 0.00 63 1016.2
20171215120001 14 304 5.0 10.0 0.00 0.00 0.00 63 1016.2
20171215115001 14 290 8.0 11.0 0.00 0.00 0.00 59 1016.2
20171215114001 14 297 9.0 12.0 0.00 0.00 0.00 62 1015.9
20171215113001 14 286 7.0 10.0 0.00 0.00 0.00 63 1016.0
20171215112001 14 287 6.0 9.0 0.00 0.00 0.00 61 1015.9
20171215111001 14 293 5.0 12.0 0.00 0.00 0.00 61 1015.9
20171215110001 14 289 8.0 12.0 0.00 0.00 0.00 62 1015.7
20171215105001 14 289 9.0 13.0 0.00 0.00 0.00 64 1015.6
20171215104001 14 287 9.0 14.0 0.00 0.00 0.00 65 1015.5
20171215103001 14 281 10.0 15.0 0.00 0.00 0.00 63 1015.4
20171215102002 13 292 10.0 16.0 0.00 0.00 0.00 62 1015.2
20171215101001 14 281 11.0 16.0 0.00 0.00 0.00 61 1015.3
20171215100001 14 288 13.0 17.0 0.00 0.00 0.00 60 1015.3
20171215095000 14 281 9.0 14.0 0.00 0.00 0.00 62 1015.1
20171215094001 13 289 11.0 16.0 0.00 0.00 0.00 62 1015.0
20171215093000 14 294 10.0 15.0 0.00 0.00 0.00 62 1014.9
20171215092001 13 291 9.0 15.0 0.00 0.00 0.00 63 1014.8
20171215091002 13 298 12.0 17.0 0.00 0.00 0.00 60 1014.9
20171215090001 13 289 8.0 15.0 0.00 0.00 0.00 62 1014.8
20171215085001 14 285 9.0 11.0 0.00 0.00 0.00 63 1014.7
20171215084001 14 280 7.0 13.0 0.00 0.00 0.00 64 1014.6
20171215083001 14 279 6.0 15.0 0.00 0.00 0.00 64 1014.7
20171215082001 14 295 8.0 16.0 0.00 0.00 0.00 61 1014.6
20171215081002 14 296 9.0 17.0 0.00 0.00 0.00 62 1014.7
20171215080001 14 299 9.0 16.0 0.00 0.00 0.00 60 1014.3
20171215075001 14 306 7.0 14.0 0.00 0.00 0.00 61 1014.3
20171215074001 14 319 8.0 16.0 0.00 0.00 0.00 61 1014.1
20171215073001 14 302 10.0 21.0 0.00 0.00 0.00 60 1014.0
20171215072001 14 300 8.0 20.0 0.00 0.00 0.00 59 1013.8
20171215071001 15 301 14.0 19.0 0.00 0.00 0.00 57 1013.5
20171215070002 15 303 13.0 22.0 0.00 0.00 0.00 58 1013.5
20171215065001 15 303 14.0 23.0 0.00 0.00 0.00 56 1013.1
20171215064002 15 298 11.0 19.0 0.00 0.00 0.00 58 1013.2
20171215063001 15 298 14.0 20.0 0.00 0.00 0.00 56 1013.3
20171215062002 15 299 10.0 17.0 0.00 0.00 0.00 55 1012.9
20171215061000 15 296 9.0 15.0 0.00 0.00 0.00 55 1012.8
20171215060001 15 295 10.0 17.0 0.00 0.00 0.00 55 1012.8
20171215055002 15 299 12.0 17.0 0.00 0.00 0.00 55 1012.5
20171215054001 15 293 11.0 19.0 0.00 0.00 0.00 55 1012.6
20171215053001 15 302 11.0 19.0 0.00 0.00 0.00 54 1012.4
20171215052001 16 304 10.0 20.0 0.00 0.00 0.00 54 1012.2
20171215051001 16 303 11.0 20.0 0.00 0.00 0.00 52 1012.3
20171215050001 16 313 10.0 19.0 0.00 0.00 0.00 54 1012.3
20171215045001 16 305 9.0 17.0 0.00 0.00 0.00 56 1012.2
20171215044001 16 310 10.0 17.0 0.00 0.00 0.00 57 1012.3
20171215043002 16 307 12.0 18.0 0.00 0.00 0.00 56 1012.1
20171215042001 16 318 10.0 18.0 0.00 0.00 0.00 54 1012.0
20171215041001 16 318 10.0 18.0 0.00 0.00 0.00 53 1012.0
20171215040002 16 303 10.0 16.0 0.00 0.00 0.00 55 1012.1
20171215035001 16 312 8.0 16.0 0.00 0.00 0.00 54 1011.9
20171215034001 16 309 11.0 22.0 0.00 0.00 0.00 51 1011.9
20171215033001 16 308 13.0 19.0 0.00 0.00 0.00 53 1011.6
20171215032001 16 300 12.0 19.0 0.00 0.00 0.00 53 1011.5
20171215031001 16 306 7.0 17.0 0.00 0.00 0.00 53 1011.5
20171215030001 16 288 6.0 14.0 0.00 0.00 0.00 53 1011.2
20171215025001 17 312 9.0 15.0 0.00 0.00 0.00 52 1011.0
20171215024001 17 290 8.0 16.0 0.00 0.00 0.00 52 1011.0
20171215023001 17 306 9.0 19.0 0.00 0.00 0.00 51 1010.8
20171215022001 17 294 10.0 17.0 0.00 0.00 0.00 52 1010.8
20171215021001 17 287 9.0 18.0 0.00 0.00 0.00 53 1010.5
20171215020001 17 294 11.0 18.0 0.00 0.00 0.00 51 1010.3
20171215015001 17 298 9.0 21.0 0.00 0.00 0.00 51 1010.1
20171215014001 17 317 12.0 21.0 0.00 0.00 0.00 49 1009.8
20171215013002 18 313 16.0 24.0 0.00 0.00 0.00 48 1009.3
20171215012001 18 304 16.0 23.0 0.00 0.00 0.00 48 1009.1
20171215011001 18 309 10.0 21.0 0.00 0.00 0.00 49 1008.9
20171215010001 18 301 12.0 19.0 0.00 0.00 0.00 49 1008.9
20171215005001 19 308 11.0 22.0 0.00 0.00 0.00 49 1008.8
20171215004000 19 302 12.0 18.0 0.00 0.00 0.00 50 1008.5
20171215003001 19 307 11.0 18.0 0.00 0.00 0.00 49 1008.5
20171215002001 19 295 8.0 23.0 0.00 0.00 0.00 50 1008.3
20171215001001 20 305 13.0 20.0 0.00 0.00 0.00 49 1007.9
20171215000001 20 307 12.0 17.0 0.00 0.00 0.00 53 1007.6
20171214235001 20 294 10.0 21.0 0.00 0.00 0.00 52 1007.4
20171214234001 21 285 14.0 23.0 0.00 0.00 0.00 49 1007.3
20171214233001 21 287 15.0 23.0 0.00 0.00 0.00 48 1007.3
20171214232002 21 283 14.0 25.0 0.00 0.00 0.00 49 1007.1
20171214231001 21 289 15.0 19.0 0.00 0.00 0.00 48 1007.1
20171214230001 21 284 11.0 17.0 0.00 0.00 0.00 49 1006.6
20171214225002 22 292 10.0 15.0 0.00 0.00 0.00 50 1006.5
20171214224001 22 292 10.0 16.0 0.00 0.00 0.00 49 1006.4
20171214223001 22 294 11.0 19.0 0.00 0.00 0.00 50 1006.1
20171214222002 22 298 12.0 18.0 0.00 0.00 0.00 52 1005.8
20171214221001 22 295 12.0 18.0 0.00 0.00 0.00 52 1005.6
20171214220001 22 288 9.0 17.0 0.00 0.00 0.00 52 1005.2
20171214215001 22 288 11.0 17.0 0.00 0.00 0.00 52 1004.9
20171214214001 23 287 11.0 18.0 0.00 0.00 0.00 52 1004.7
20171214213001 22 281 11.0 18.0 0.00 0.00 0.00 52 1004.5
20171214212001 22 285 12.0 17.0 0.00 0.00 0.00 53 1004.2
20171214211001 22 287 10.0 16.0 0.00 0.00 0.00 55 1003.9
20171214210001 22 285 11.0 17.0 0.00 0.00 0.00 53 1003.7
20171214205001 23 292 11.0 16.0 0.00 0.00 0.00 51 1003.6
20171214204002 23 288 10.0 16.0 0.00 0.00 0.00 51 1003.3
20171214203001 23 288 10.0 17.0 0.00 0.00 0.00 53 1003.2
20171214202001 23 294 10.0 19.0 0.00 0.00 0.00 53 1003.0
20171214201001 23 295 10.0 16.0 0.00 0.00 0.00 52 1002.8
20171214200001 23 294 12.0 19.0 0.00 0.00 0.00 51 1002.7
20171214195001 23 288 10.0 17.0 0.00 0.00 0.00 53 1002.6
20171214194002 23 288 12.0 19.0 0.00 0.00 0.00 52 1002.3
20171214193001 23 286 7.0 19.0 0.00 0.00 0.00 53 1002.1
20171214192001 23 282 10.0 18.0 0.00 0.00 0.00 53 1002.0
20171214191001 23 295 12.0 18.0 0.00 0.00 0.00 51 1002.0
20171214190001 23 300 14.0 19.0 0.00 0.00 0.00 50 1001.9
20171214185002 23 288 13.0 20.0 0.00 0.00 0.00 48 1001.7
20171214184001 23 279 13.0 21.0 0.00 0.00 0.00 53 1001.4
20171214183001 24 289 11.0 20.0 0.00 0.00 0.00 54 1001.3
20171214182002 24 286 11.0 18.0 0.00 0.00 0.00 55 1001.2
20171214181001 24 297 12.0 21.0 0.00 0.00 0.00 53 1001.0
20171214180001 23 282 14.0 19.0 0.00 0.00 0.00 54 1001.0